Regional Weather Roundup
Issued by NWS Cleveland, OH

Home | Current Version | Previous Version | Text Only | Print | Product List | Glossary On
Versions: 1 2 3 4 5 6 7 8 9 10 11 12 13 14 15 16 17 18 19 20 21 22 23 24 25 26 27 28 29 30 31 32 33 34 35 36 37 38 39 40 41 42 43 44 45 46 47 48 49 50
000
ASUS41 KCLE 280712
RWRCLE
OHIO REGIONAL WEATHER ROUNDUP
NATIONAL WEATHER SERVICE WILMINGTON, OH
300 AM EDT FRI APR 28 2017

NOTE: "FAIR" INDICATES FEW OR NO CLOUDS BELOW 12,000 FEET WITH NO
SIGNIFICANT WEATHER AND/OR OBSTRUCTIONS TO VISIBILITY.

OHZ001>008-015>018-024>027-034-035-043-044-280800-
   NORTHWEST OHIO

CITY           SKY/WX    TMP DP  RH WIND       PRES   REMARKS
DEFIANCE       CLOUDY    47  36  65 W8        29.92S
FINDLAY        FAIR      46  40  79 W7        29.90S
TOLEDO EXPRESS CLOUDY    49  39  68 W16       29.90R
TOLEDO EXEC    CLOUDY    51  41  68 W22       29.90S
LIMA           FAIR      47  43  86 W9        29.92R
$$

OHZ009>014-019>023-028>033-038-089-280800-
   NORTHEAST OHIO

CITY           SKY/WX    TMP DP  RH WIND       PRES   REMARKS
CLE-HOPKINS    FAIR      50  41  71 SW6       29.95R
CLE-LAKEFRONT  MOCLDY    50  42  74 SW12      29.92R
CUY CO. ARPT   NOT AVBL
LORAIN-ELYRIA  FAIR      44  38  79 SW7       29.94R
ASHTABULA      FAIR      46  44  93 SW3       29.93R
AKRON-CANTON   FAIR      49  41  74 W5        29.94R
WOOSTER        FAIR      42  40  92 CALM      29.95R
MANSFIELD      FAIR      46  43  89 W3        29.93R
YOUNGSTOWN     FAIR      48  44  86 W5        29.93R
$$

OHZ042-051>053-060>062-070>072-077>081-280800-
  SOUTHWEST OHIO

CITY           SKY/WX    TMP DP  RH WIND       PRES   REMARKS
CINC-COVINGTON FAIR      49  45  86 NW5       29.94R
CINC-LUNKEN    FAIR      47  47 100 CALM      29.97R FOG
HAMILTON       FAIR      44  43  96 CALM      29.96R
DAYTON         FAIR      47  43  86 W8        29.95R
WRIGHT-PAT AFB FAIR      45  43  92 SW3       29.94R
DAYTON GENERAL FAIR      50  44  80 W3        29.94R
WILMINGTON     FAIR      47  45  93 CALM      29.94R
$$

OHZ036-037-039>041-045>050-054>059-063>069-073>076-082>088-280800-
  CENTRAL AND SOUTHEAST OHIO

CITY           SKY/WX    TMP DP  RH WIND       PRES   REMARKS
COLUMBUS       FAIR      49  46  90 CALM      29.95R
OSU AIRPORT    FAIR      49  44  83 CALM      29.94R
BOLTON FIELD   FAIR      44  43  97 CALM      29.95R
RICKENBACK AFB FAIR      48  45  89 CALM      29.94S
NEWARK         FAIR      45  42  89 W3        29.94R
MARION         FAIR      41  39  93 CALM      29.94R
LANCASTER      FAIR      47  44  90 CALM      29.94R
ZANESVILLE     FAIR      49  44  83 CALM      29.94R
NEW PHILLY     FAIR      49  46  90 CALM      29.95R
$$



USA.gov is the U.S. government's official web portal to all federal, state and local government web resources and services.